EW1914 Weather Reports


time (UTC)temp
C
wind
direction
speed
KPH
gust
KPH
rain 1hr
cm
rain 24hr
cm
rain mn
cm
humidity
%
barometer
mb
20260502181958 13 0.0 0.0 0.00 0.00 0.00 81 1015.0
20260502180957 13 0.0 0.0 0.00 0.00 0.00 82 1015.1
20260502163958 12 0.0 0.0 0.00 0.00 0.00 85 1015.5
20260502162958 12 0.0 0.0 0.00 0.00 0.00 85 1015.5
20260502161956 12 0.0 0.0 0.00 0.00 0.00 85 1015.6
20260502160957 12 0.0 0.0 0.00 0.00 0.00 85 1015.5
20260502151956 12 0.0 0.0 0.00 0.00 0.00 86 1015.6
20260502150958 11 0.0 0.0 0.00 0.00 0.00 86 1015.7
20260502123002 11 0.0 0.0 0.00 0.00 0.00 86 1015.4
20260502121957 11 0.0 0.0 0.00 0.00 0.00 86 1015.0
20260502114958 11 0.0 0.0 0.00 0.00 0.00 87 1015.2
20260502113959 11 0.0 0.0 0.00 0.00 0.00 88 1015.4
20260502111959 11 0.0 0.0 0.00 0.00 0.00 88 1015.1
20260502110958 11 0.0 0.0 0.00 0.00 0.00 88 1015.1
20260502110005 11 0.0 0.0 0.00 0.00 0.00 89 1015.3
20260502104956 11 0.0 0.0 0.00 0.00 0.00 88 1015.5
20260502102959 11 0.0 0.0 0.00 0.00 0.00 88 1015.3
20260502101956 11 0.0 0.0 0.00 0.00 0.00 87 1015.2
20260502100957 11 0.0 0.0 0.00 0.00 0.00 87 1015.0
20260502070959 13 0.0 0.0 0.00 0.00 0.00 78 1016.1
20260502070006 13 0.0 0.0 0.00 0.00 0.00 78 1016.1
20260502065000 13 0.0 0.0 0.00 0.00 0.00 77 1016.2
20260502063959 13 0.0 0.0 0.00 0.00 0.00 77 1016.3
20260502062000 13 0.0 0.0 0.00 0.00 0.00 77 1016.1
20260502060959 13 0.0 0.0 0.00 0.00 0.00 77 1016.0
20260502060000 14 0.0 0.0 0.00 0.00 0.00 76 1016.0
20260502054958 14 0.0 0.0 0.00 0.00 0.00 76 1015.9
20260502053959 14 0.0 0.0 0.00 0.00 0.00 76 1015.8
20260502053000 14 0.0 0.0 0.00 0.00 0.00 75 1015.8
20260502051959 15 0.0 0.0 0.00 0.00 0.00 74 1015.7
20260502050959 15 0.0 0.0 0.00 0.00 0.00 74 1015.6
20260502050001 15 0.0 0.0 0.00 0.00 0.00 73 1015.6
20260502045000 15 0.0 0.0 0.00 0.00 0.00 72 1015.6
20260502044001 16 0.0 0.0 0.00 0.00 0.00 72 1015.6
20260502042000 16 0.0 0.0 0.00 0.00 0.00 71 1015.2
20260502040959 17 0.0 0.0 0.00 0.00 0.00 70 1015.0
20260502040000 17 0.0 0.0 0.00 0.00 0.00 70 1014.8
20260502035000 17 0.0 0.0 0.00 0.00 0.00 69 1014.6
20260502033002 18 0.0 0.0 0.00 0.00 0.00 67 1014.2
20260502032001 18 0.0 0.0 0.00 0.00 0.00 66 1014.2
20260502031000 19 0.0 0.0 0.00 0.00 0.00 65 1014.0
20260502030004 19 0.0 0.0 0.00 0.00 0.00 65 1013.9
20260502024959 20 0.0 0.0 0.00 0.00 0.00 64 1013.8
20260502023959 20 0.0 0.0 0.00 0.00 0.00 63 1013.6
20260502022959 20 0.0 0.0 0.00 0.00 0.00 62 1013.5
20260502021959 21 0.0 0.0 0.00 0.00 0.00 62 1013.3
20260502020958 21 0.0 0.0 0.00 0.00 0.00 61 1013.3
20260502020000 21 0.0 0.0 0.00 0.00 0.00 61 1013.2
20260502014958 21 0.0 0.0 0.00 0.00 0.00 61 1013.1
20260502013959 22 0.0 0.0 0.00 0.00 0.00 61 1013.1
20260502013000 22 0.0 0.0 0.00 0.00 0.00 60 1013.1
20260502011958 22 0.0 0.0 0.00 0.00 0.00 59 1013.1
20260502010959 22 0.0 0.0 0.00 0.00 0.00 59 1013.0
20260502004959 23 0.0 0.0 0.00 0.00 0.00 57 1013.0
20260502003959 23 0.0 0.0 0.00 0.00 0.00 57 1013.0
20260502003001 23 0.0 0.0 0.00 0.00 0.00 55 1013.1
20260502001958 23 0.0 0.0 0.00 0.00 0.00 52 1013.0
20260502000959 23 0.0 0.0 0.00 0.00 0.00 51 1013.0
20260502000005 23 0.0 0.0 0.00 0.00 0.00 48 1012.9
20260501234958 24 0.0 0.0 0.00 0.00 0.00 49 1012.9
20260501233958 24 0.0 0.0 0.00 0.00 0.00 47 1013.0
20260501232958 24 0.0 0.0 0.00 0.00 0.00 47 1013.1
20260501231957 24 0.0 0.0 0.00 0.00 0.00 45 1013.1
20260501230957 24 0.0 0.0 0.00 0.00 0.00 48 1013.3
20260501230002 24 0.0 0.0 0.00 0.00 0.00 50 1013.4
20260501224000 23 0.0 0.0 0.00 0.00 0.00 52 1013.7
20260501223000 24 0.0 0.0 0.00 0.00 0.00 51 1013.8
20260501221958 23 0.0 0.0 0.00 0.00 0.00 52 1013.8
20260501220959 23 0.0 0.0 0.00 0.00 0.00 51 1014.0
20260501220006 23 0.0 0.0 0.00 0.00 0.00 53 1014.1
20260501215002 23 0.0 0.0 0.00 0.00 0.00 55 1014.2
20260501214002 22 0.0 0.0 0.00 0.00 0.00 53 1014.4
20260501211004 22 0.0 0.0 0.00 0.00 0.00 57 1014.7
20260501210004 22 0.0 0.0 0.00 0.00 0.00 55 1014.7
20260501205002 21 0.0 0.0 0.00 0.00 0.00 58 1014.9
20260501204003 21 0.0 0.0 0.00 0.00 0.00 57 1015.0
20260501203004 21 0.0 0.0 0.00 0.00 0.00 58 1015.1
20260501202002 21 0.0 0.0 0.00 0.00 0.00 55 1015.2
20260501201003 21 0.0 0.0 0.00 0.00 0.00 58 1015.3
20260501200005 20 0.0 0.0 0.00 0.00 0.00 59 1015.4
20260501195003 20 0.0 0.0 0.00 0.00 0.00 60 1015.4
20260501194003 20 0.0 0.0 0.00 0.00 0.00 62 1015.4
20260501193005 19 0.0 0.0 0.00 0.00 0.00 61 1015.5
20260501192003 19 0.0 0.0 0.00 0.00 0.00 63 1015.5
20260501191001 18 0.0 0.0 0.00 0.00 0.00 65 1015.6
20260501185004 18 0.0 0.0 0.00 0.00 0.00 65 1015.8